Dewpoint
48 45 40 32 17 15 8 3 4 2 3 8 15 16 13 18 30 33 47 51 63 62 68 70 70 70 70 71 72 71 71 71 72 72 72 72 72 72 72 71 71 71 71 70 70 69 69 70 70
40 37 35 23 13 8 4 5 3 1 9 20 19 18 16 16 32 41 48 52 61 62 66 68 70 70 70 71 71 72 72 72 72 72 72 72 72 71 71 71 71 71 70 70 69 69 69 70 69
42 34 27 16 11 8 8 7 2 5 15 17 15 15 15 14 20 39 51 54 58 61 63 67 69 70 71 71 71 71 72 72 72 72 72 71 71 70 71 71 71 70 70 70 69 69 70 69 69
32 35 27 13 8 7 5 6 7 4 12 13 11 10 18 35 36 38 52 53 54 58 62 68 69 70 70 71 71 71 72 72 72 72 71 71 70 70 70 70 71 70 69 69 69 70 70 69 68
27 26 18 12 8 7 8 9 8 6 6 15 13 11 15 25 40 47 52 52 52 58 68 68 69 69 70 71 71 71 72 71 69 71 71 71 70 70 68 68 70 69 69 69 69 70 69 68 68
24 23 16 12 11 11 9 9 8 5 9 13 14 12 16 36 38 45 53 54 56 67 68 68 68 69 70 70 70 71 71 71 70 70 71 70 70 68 68 69 69 69 68 69 68 69 68 68 67
26 22 18 17 15 13 12 13 9 5 7 9 16 14 15 21 45 51 50 55 59 64 68 68 67 68 69 70 69 68 68 68 70 70 70 70 70 68 68 68 67 67 67 67 69 68 68 67 67
30 25 22 20 16 15 14 14 8 8 8 12 11 10 12 41 47 53 54 56 61 65 68 68 67 68 68 69 69 68 68 68 69 70 70 70 69 67 68 67 66 65 66 66 67 67 65 66 66
30 24 22 20 19 18 17 14 13 9 8 7 11 11 22 39 43 51 56 58 62 65 66 69 68 67 68 68 69 68 68 68 69 69 69 69 69 68 67 67 65 64 64 63 63 64 66 65 65
23 26 23 22 20 17 15 14 13 10 10 9 10 14 15 28 27 38 55 59 61 64 67 68 68 67 67 66 68 68 68 68 69 68 69 69 68 66 65 65 65 64 65 64 64 63 65 65 64
21 23 25 23 21 19 17 17 16 12 10 12 13 16 17 19 21 26 38 53 59 63 65 68 68 68 67 64 68 67 67 67 68 68 67 68 66 65 65 65 65 65 64 65 65 65 65 64 63
16 19 21 22 22 20 20 20 19 18 19 20 19 18 17 20 20 23 30 34 40 60 64 66 68 68 68 66 66 66 65 66 66 67 66 66 65 65 65 64 64 64 64 64 64 64 63 62 63
16 15 16 19 20 21 22 20 21 20 19 18 19 19 19 19 20 19 20 31 31 40 61 66 67 67 68 67 65 65 64 65 66 66 67 66 65 65 65 64 63 62 63 63 63 63 61 62 62
14 14 12 12 16 16 18 18 18 20 22 21 21 20 21 21 22 22 23 24 28 34 45 68 67 67 67 67 67 66 66 66 66 66 66 66 65 66 64 64 62 62 63 64 63 62 61 62 62
16 14 12 13 11 12 16 16 17 19 21 21 22 21 22 22 23 24 27 28 28 30 37 67 67 67 67 67 67 67 67 66 66 66 66 66 65 65 64 63 63 63 63 63 63 62 62 61 61
19 18 15 16 17 17 18 16 18 20 21 20 22 21 22 23 23 25 28 29 27 28 32 62 67 67 66 66 67 65 66 66 66 65 66 66 66 64 64 63 63 63 63 63 62 61 61 61 60
18 16 15 14 10 8 6 7 10 14 16 16 14 20 21 22 23 24 26 28 28 25 33 43 66 67 66 66 65 65 65 65 65 65 65 66 65 64 63 63 63 63 63 62 62 61 61 60 59
13 10 11 9 8 7 9 9 10 13 15 16 19 20 19 20 22 23 26 25 27 27 28 43 66 67 66 66 65 65 64 63 65 65 64 64 65 64 64 63 63 63 62 62 61 60 61 59 59
8 9 8 8 4 4 7 10 7 14 15 10 11 15 15 16 17 17 24 28 29 32 32 42 60 67 66 65 64 64 63 63 63 65 64 64 64 63 63 62 62 62 61 61 61 60 59 59 59
9 10 9 9 9 7 5 4 3 5 5 8 8 8 10 12 14 15 16 27 31 32 33 42 56 66 65 64 64 63 63 63 63 63 64 64 63 63 62 62 62 62 61 60 60 59 58 58 59
9 10 9 10 9 8 7 4 7 10 12 12 12 13 15 16 16 19 21 25 29 34 37 42 49 65 65 64 63 62 62 63 63 62 62 62 63 63 62 62 61 61 60 60 60 59 57 57 58
7 10 11 13 12 8 7 6 7 11 12 12 13 15 18 30 34 35 33 32 29 37 40 40 46 52 65 63 62 62 61 60 60 60 61 62 61 62 62 62 61 61 60 60 59 60 58 57 55
12 11 13 15 12 11 12 10 10 13 9 11 23 30 33 35 37 38 38 37 33 31 43 44 46 50 63 62 62 61 60 60 59 60 60 60 60 61 61 61 61 61 60 60 59 59 58 58 56
21 13 15 16 14 13 13 13 11 13 11 21 32 33 36 39 41 41 40 38 35 32 41 48 49 53 62 62 62 61 60 59 58 58 60 60 60 60 61 61 61 60 60 59 59 60 59 58 57
21 20 21 20 17 16 15 11 12 15 30 32 31 34 38 41 44 47 41 40 36 34 40 52 51 53 60 61 61 61 60 59 57 59 59 60 59 59 60 60 60 59 59 59 60 59 58 58 57
25 21 21 16 15 15 14 11 18 20 30 31 35 36 39 42 44 47 49 49 42 40 52 53 53 52 58 59 60 59 58 58 57 57 59 59 58 58 60 60 60 59 59 59 59 59 58 58 58
26 23 27 25 21 23 29 13 28 30 33 31 32 35 40 41 44 46 48 51 45 55 56 55 53 53 56 58 58 57 58 56 56 58 58 58 57 57 59 59 59 59 59 59 59 59 57 57 58
28 26 19 21 23 21 28 24 31 34 29 25 25 35 40 41 44 45 46 48 53 55 55 55 56 56 57 57 57 57 57 56 58 58 57 56 56 56 57 57 59 59 59 59 59 58 58 57 58
18 25 24 25 22 22 13 24 36 33 26 25 31 35 40 41 42 42 43 45 48 54 54 55 56 56 56 56 56 56 55 56 57 57 57 56 56 56 56 56 56 58 58 58 58 58 57 57 57
14 22 28 22 20 18 25 30 38 31 25 32 34 36 39 39 40 39 40 40 42 47 53 54 55 56 56 55 55 56 56 57 57 57 57 56 55 56 56 56 56 56 57 58 57 57 57 57 56
Wind_Speed
8 10 11 14 10 12 23 25 26 29 5 2 6 8 10 13 15 5 16 18 28 23 21 20 19 19 17 16 16 17 16 16 15 15 16 17 16 16 15 15 16 16 18 18 16 16 18 18 17
12 14 14 9 15 22 24 26 27 28 6 13 7 7 9 10 14 15 14 17 24 21 20 18 18 17 16 15 15 16 16 16 16 15 17 17 18 18 16 17 16 16 17 17 16 16 18 18 18
12 18 12 8 22 32 26 27 27 8 11 6 3 8 10 7 6 12 23 21 21 20 19 19 19 16 14 13 13 14 16 17 17 17 17 18 18 19 18 18 17 18 17 18 17 18 17 18 18
9 7 10 20 31 26 33 29 34 17 9 2 7 10 5 13 6 7 20 22 19 20 18 22 20 17 15 14 13 14 15 17 18 18 18 18 19 20 20 20 18 18 18 17 18 18 19 18 18
17 10 17 24 31 33 32 33 26 9 18 7 11 11 11 9 12 12 16 18 17 17 20 19 20 17 15 14 14 14 15 17 17 18 18 19 20 20 20 20 19 18 18 17 17 19 19 19 19
13 16 23 29 32 31 29 26 28 20 14 10 9 10 11 13 11 9 17 14 12 21 17 16 16 16 15 13 14 15 16 16 16 18 19 20 20 21 19 21 20 19 19 18 19 21 20 20 20
23 22 29 32 32 32 29 25 29 21 17 23 13 17 13 6 11 13 9 15 12 17 18 15 14 14 14 12 13 13 14 15 17 18 19 19 20 20 20 21 22 22 20 19 20 20 19 19 20
23 24 33 32 30 34 27 30 16 13 18 16 23 22 16 12 11 3 4 15 13 15 15 16 14 14 13 12 13 12 13 14 15 17 18 19 18 18 19 21 21 20 19 21 22 19 19 15 18
22 26 32 35 32 31 28 27 20 11 19 14 18 22 3 13 10 7 9 8 15 14 14 15 15 15 15 15 14 13 13 12 13 15 15 14 12 15 17 19 19 18 14 12 9 10 14 11 12
28 28 37 29 30 30 28 27 23 15 22 18 18 13 14 14 11 10 15 15 15 16 16 15 14 17 16 15 17 14 13 11 11 12 14 11 11 12 14 13 15 18 14 16 20 20 11 10 9
30 40 30 30 27 29 28 30 24 22 30 15 19 23 17 17 14 12 14 18 23 20 18 18 16 14 16 14 16 13 13 12 13 15 14 13 12 11 11 10 11 15 20 15 17 12 13 15 13
33 34 35 33 30 30 30 32 26 28 23 24 22 16 13 21 25 17 17 16 16 26 26 24 21 17 16 12 15 15 14 15 14 15 16 13 12 13 12 12 13 16 15 17 17 14 11 12 13
32 32 32 30 30 29 30 30 29 30 26 27 26 24 21 21 19 19 18 18 19 17 27 30 24 20 18 14 15 13 14 17 14 15 14 11 12 13 12 14 15 14 14 18 17 16 16 13 17
25 30 30 30 30 30 29 34 28 29 27 29 30 30 26 21 25 23 20 21 21 20 19 31 30 24 21 18 13 12 9 14 17 14 14 14 11 13 13 14 16 16 17 15 17 17 15 14 14
27 29 28 31 27 30 24 36 38 25 27 34 36 32 31 29 24 26 23 22 23 23 19 32 29 26 24 23 18 15 13 9 9 14 16 16 15 14 14 14 15 15 15 17 14 13 13 13 13
28 23 28 28 29 31 29 45 32 27 33 35 35 33 29 26 28 26 26 28 24 24 23 25 26 27 25 22 17 15 14 16 13 10 13 18 17 15 15 14 13 14 13 13 14 15 16 18 16
26 31 33 34 27 29 27 38 29 29 28 37 27 20 30 30 29 29 29 27 28 27 23 21 29 29 26 19 16 15 16 15 15 14 13 12 16 16 16 14 14 15 16 17 14 13 12 25 18
29 29 32 33 27 29 27 31 25 29 26 20 14 15 17 17 17 19 24 25 25 26 26 22 26 27 25 18 17 14 15 16 15 16 16 19 14 16 16 14 14 16 15 15 14 16 12 16 16
32 33 32 30 22 25 25 29 31 22 24 27 24 19 22 23 22 22 19 16 19 18 18 22 25 26 24 20 20 17 19 16 14 12 14 17 16 17 17 15 14 18 19 20 19 16 19 13 15
35 34 36 28 27 24 25 32 25 25 29 30 31 25 22 24 24 26 25 21 18 18 18 18 23 28 23 20 19 15 15 13 12 12 13 13 16 18 18 17 16 16 17 22 19 19 14 13 16
34 34 29 27 24 23 27 32 30 36 35 30 30 22 24 23 19 13 12 16 23 22 18 17 18 28 24 21 17 15 17 14 16 15 15 16 16 17 19 19 16 18 17 19 21 21 23 20 16
35 31 23 24 21 26 23 27 32 24 19 31 32 32 19 4 7 11 12 15 17 21 21 20 19 18 25 23 21 24 20 17 11 13 13 14 19 20 20 20 18 20 18 22 23 22 24 18 19
25 28 21 23 25 24 26 21 25 22 25 15 13 5 1 4 6 9 12 16 19 15 20 21 20 19 26 25 23 23 20 16 12 13 16 15 15 17 17 18 19 20 20 22 22 23 24 20 17
15 20 18 22 20 26 26 26 23 24 18 16 14 5 9 11 13 10 12 11 16 16 16 23 21 18 24 23 26 22 21 17 17 18 16 16 15 15 16 18 20 21 22 23 25 22 26 26 19
18 15 14 13 20 23 24 24 19 19 6 12 9 11 15 15 18 24 14 13 12 16 16 21 20 17 25 24 23 19 23 19 14 21 17 15 14 15 17 20 21 20 25 22 20 24 26 26 23
32 24 13 9 11 22 27 12 15 16 21 10 13 13 17 19 21 25 31 29 13 8 20 17 16 16 21 22 20 15 15 11 9 12 12 12 12 15 16 18 19 23 23 21 22 21 23 25 21
21 35 27 17 19 10 8 15 20 24 7 14 12 17 20 20 19 22 25 32 14 16 14 9 9 15 18 19 15 13 14 10 8 10 10 9 11 11 11 16 19 22 26 23 24 19 26 27 21
15 16 20 13 5 6 3 8 11 12 13 11 13 17 20 20 18 22 24 30 28 16 9 2 6 12 17 17 13 11 13 9 10 10 9 9 10 11 12 13 18 16 21 24 21 20 18 24 18
17 7 6 9 15 3 3 5 13 18 10 10 16 18 21 18 18 20 22 26 31 12 6 2 5 8 16 16 11 13 10 8 11 11 11 11 12 12 12 11 8 19 22 23 24 20 23 21 19
25 19 22 8 6 12 2 4 7 13 11 21 21 22 21 20 20 20 21 23 27 25 6 5 5 14 13 14 12 12 10 11 12 10 11 12 12 12 12 12 11 9 12 24 22 20 19 19 19
Wind_Direction
209 233 246 263 248 235 251 251 256 263 262 350 39 330 324 355 22 88 92 103 113 129 137 149 153 157 157 156 161 167 166 165 159 155 151 149 145 144 142 143 141 140 137 138 139 133 128 119 113
216 228 235 270 241 250 251 248 246 261 85 78 62 298 289 287 99 125 115 118 122 131 141 150 156 156 157 157 159 166 168 167 163 158 157 155 153 154 156 152 151 146 143 145 146 140 134 126 120
248 248 246 226 240 245 255 270 267 17 96 128 198 231 263 242 273 127 125 130 127 134 151 149 155 155 150 152 156 163 169 167 164 162 165 167 165 163 163 159 157 152 150 150 149 140 132 128 128
206 226 235 254 243 242 236 257 279 297 134 171 259 258 205 64 48 92 131 136 146 143 150 149 154 153 152 151 155 162 167 166 167 165 170 170 172 170 166 166 160 157 158 154 147 141 135 135 135
225 230 230 240 248 254 268 278 288 300 286 192 228 250 272 179 97 80 127 141 155 136 122 148 153 155 155 154 158 165 165 171 179 173 172 176 178 172 178 176 168 167 165 157 148 140 141 144 144
208 225 245 242 247 253 258 255 266 260 249 244 222 245 269 97 136 151 138 143 153 119 131 139 150 155 156 157 161 165 167 174 177 176 179 183 181 182 182 173 176 169 168 162 159 148 150 150 151
223 225 236 251 262 269 271 257 243 242 230 250 224 227 255 246 97 111 145 150 143 127 128 141 159 158 155 163 167 168 169 176 177 179 186 187 188 188 183 179 183 183 172 161 151 152 152 154 158
231 246 252 254 257 263 275 285 288 277 264 266 276 252 251 124 87 101 181 158 145 132 133 148 162 163 162 167 171 174 176 179 178 179 188 192 196 190 189 189 191 187 172 174 165 166 152 163 167
233 246 249 246 252 265 272 277 274 274 276 264 262 269 180 109 132 171 180 186 157 155 165 153 170 171 171 163 172 176 183 181 176 179 190 205 198 195 193 194 192 187 178 184 160 118 130 163 181
243 243 242 250 260 268 278 272 288 247 253 262 256 268 249 165 175 196 183 190 183 179 179 162 185 174 176 175 157 177 179 183 185 190 192 207 204 185 186 181 188 156 162 152 141 138 160 180 176
230 245 257 257 264 273 285 287 276 254 250 222 232 246 231 260 259 212 223 198 199 193 184 173 178 187 180 185 155 175 180 185 189 197 196 186 192 180 193 125 144 148 146 135 129 160 172 180 196
249 248 255 259 267 273 281 281 279 270 281 296 296 284 264 214 235 213 227 226 229 194 184 178 172 189 191 190 169 176 178 180 187 192 196 182 183 170 177 154 145 143 148 150 156 172 216 177 211
256 257 258 263 264 263 276 278 280 268 272 279 278 274 259 259 259 247 236 229 240 237 189 174 172 186 186 195 184 182 184 178 186 178 186 181 176 162 169 169 161 163 166 166 170 177 188 192 197
261 262 264 269 264 269 265 276 272 267 280 276 273 269 266 238 241 254 229 237 242 232 216 169 176 185 178 191 183 189 193 178 175 178 177 174 171 162 170 171 174 172 172 172 172 177 182 197 204
266 269 269 263 264 267 265 266 259 267 257 259 265 261 244 247 238 232 237 236 234 241 230 167 174 182 177 187 186 185 187 202 185 167 167 174 172 176 177 172 171 174 176 173 172 171 178 194 198
271 262 261 254 250 249 244 260 256 254 269 254 246 245 248 240 236 239 231 224 230 231 226 175 170 176 184 183 178 191 194 184 190 197 175 178 180 178 180 182 185 176 155 170 179 183 193 186 185
249 251 252 260 251 271 253 258 254 252 238 259 251 244 230 233 230 230 229 226 218 229 222 193 170 173 180 174 169 186 206 189 181 186 188 189 180 178 181 177 176 169 166 174 182 192 208 170 179
239 242 248 256 257 250 264 271 259 272 273 261 272 271 277 273 255 228 228 232 224 218 223 192 160 166 172 170 172 189 204 201 195 182 186 196 182 182 175 182 177 170 165 172 172 171 160 170 177
260 263 262 264 265 260 236 251 267 244 273 286 275 249 256 258 263 266 252 229 229 232 219 192 161 161 160 175 179 186 193 193 194 191 181 184 178 192 188 184 182 181 181 178 172 169 169 175 173
244 250 258 267 266 285 284 281 280 270 266 254 258 247 255 260 246 240 241 220 226 220 225 182 167 157 163 178 193 190 188 193 187 173 190 179 186 186 196 187 186 181 196 164 167 168 180 188 192
253 253 250 262 267 266 261 269 275 259 254 254 252 248 246 252 256 257 252 221 212 213 214 174 170 162 166 172 176 184 182 190 193 178 181 194 191 189 195 198 190 185 180 171 174 173 178 185 193
250 251 252 251 260 261 258 266 264 269 249 227 238 234 229 273 313 306 291 282 253 203 197 183 177 180 167 166 182 193 191 187 187 180 184 190 199 202 196 196 187 182 179 177 183 178 181 186 191
238 246 248 252 252 255 259 267 268 273 281 176 141 128 91 263 293 277 277 276 259 225 190 181 181 192 161 174 191 200 190 182 170 184 191 191 204 197 196 195 192 187 184 182 181 180 181 186 185
255 238 237 240 247 250 245 245 256 273 267 140 103 122 57 25 352 301 273 266 271 221 200 173 174 180 163 181 205 198 178 182 191 189 186 190 194 197 201 196 193 186 184 182 180 179 181 185 190
217 214 223 229 221 238 243 240 227 222 320 108 134 86 56 29 5 346 302 281 250 227 201 157 168 180 169 184 203 195 177 194 198 174 184 181 186 195 200 194 189 185 182 179 179 185 185 185 187
222 211 204 207 214 236 231 233 247 196 167 119 69 66 58 38 9 347 338 337 295 223 133 148 169 193 171 177 198 190 173 189 202 165 170 161 182 199 194 193 193 189 184 179 183 186 182 183 193
218 216 209 273 279 267 255 214 123 159 176 114 90 62 53 37 8 342 344 338 307 95 101 119 175 207 179 170 168 189 175 151 172 145 145 179 197 201 190 194 199 190 180 177 182 181 185 181 199
183 218 214 221 236 239 210 185 230 55 120 83 64 61 50 33 7 350 356 343 341 98 104 162 253 280 149 143 158 166 130 150 136 136 165 186 172 174 189 206 200 175 174 177 177 181 173 180 188
185 196 227 210 248 273 236 127 66 101 24 42 68 59 57 35 13 358 0 352 352 72 68 205 247 352 126 134 146 138 136 149 144 158 173 180 160 166 175 167 156 182 183 174 175 166 175 177 181
212 178 219 239 246 245 114 6 18 346 49 34 54 55 55 35 18 6 3 2 360 359 80 339 325 330 141 133 120 131 144 169 161 149 168 157 155 162 160 151 141 120 165 177 171 160 164 163 162